| time (UTC) | temp F | wind direction | speed MPH | gust MPH | rain 1hr in | rain 24hr in | rain mn in | humidity % | barometer mb |
| 20260903133527 | 59 | 0 | 0.0 | 2.0 | 0.00 | 0.00 | 0.00 | 55 | 1010.7 |
| 20260903133058 | 59 | 0 | 0.0 | 0.0 | 0.00 | 0.00 | 0.00 | 55 | 1010.5 |
| 20260903132526 | 58 | 0 | 0.0 | 3.0 | 0.00 | 0.00 | 0.00 | 55 | 1010.6 |
| 20260903132027 | 58 | 0 | 0.0 | 3.0 | 0.00 | 0.00 | 0.00 | 56 | 1010.4 |
| 20260903131545 | 58 | 360 | 0.0 | 4.0 | 0.00 | 0.00 | 0.00 | 56 | 1010.3 |
| 20260903131025 | 58 | 0 | 1.0 | 4.0 | 0.00 | 0.00 | 0.00 | 56 | 1010.5 |
| 20260903130524 | 58 | 0 | 2.0 | 4.0 | 0.00 | 0.00 | 0.00 | 55 | 1010.7 |
| 20260903130053 | 58 | 360 | 2.0 | 4.0 | 0.00 | 0.00 | 0.00 | 53 | 1010.7 |
| 20260903125527 | 59 | 360 | 1.0 | 3.0 | 0.00 | 0.00 | 0.00 | 53 | 1010.7 |
| 20260903125026 | 60 | 360 | 1.0 | 3.0 | 0.00 | 0.00 | 0.00 | 52 | 1010.7 |
| 20260903124553 | 60 | 360 | 1.0 | 3.0 | 0.00 | 0.00 | 0.00 | 51 | 1010.7 |
| 20260903124025 | 61 | 360 | 0.0 | 2.0 | 0.00 | 0.00 | 0.00 | 51 | 1010.6 |
| 20260903123526 | 61 | 360 | 1.0 | 4.0 | 0.00 | 0.00 | 0.00 | 49 | 1010.4 |
| 20260903123051 | 62 | 0 | 0.0 | 4.0 | 0.00 | 0.00 | 0.00 | 49 | 1010.4 |
| 20260903122526 | 62 | 0 | 0.0 | 6.0 | 0.00 | 0.00 | 0.00 | 49 | 1010.6 |
| 20260903122026 | 62 | 360 | 0.0 | 6.0 | 0.00 | 0.00 | 0.00 | 48 | 1010.5 |
| 20260903121550 | 62 | 360 | 3.0 | 6.0 | 0.00 | 0.00 | 0.00 | 47 | 1010.6 |
| 20260903121025 | 63 | 360 | 2.0 | 9.0 | 0.00 | 0.00 | 0.00 | 47 | 1010.7 |
| 20260903120527 | 63 | 0 | 2.0 | 10.0 | 0.00 | 0.00 | 0.00 | 47 | 1010.7 |
| 20260903120101 | 63 | 360 | 5.0 | 12.0 | 0.00 | 0.00 | 0.00 | 47 | 1010.7 |
| 20260903115525 | 63 | 360 | 6.0 | 12.0 | 0.00 | 0.00 | 0.00 | 47 | 1010.7 |
| 20260903115027 | 63 | 360 | 3.0 | 6.0 | 0.00 | 0.00 | 0.00 | 46 | 1010.5 |
| 20260903114606 | 63 | 360 | 2.0 | 6.0 | 0.00 | 0.00 | 0.00 | 46 | 1010.5 |
| 20260903114025 | 64 | 360 | 2.0 | 6.0 | 0.00 | 0.00 | 0.00 | 45 | 1010.5 |
| 20260903113525 | 64 | 360 | 3.0 | 9.0 | 0.00 | 0.00 | 0.00 | 44 | 1010.6 |
| 20260903113044 | 64 | 360 | 3.0 | 12.0 | 0.00 | 0.00 | 0.00 | 44 | 1010.4 |
| 20260903112526 | 64 | 360 | 5.0 | 12.0 | 0.00 | 0.00 | 0.00 | 44 | 1010.6 |
| 20260903112029 | 64 | 360 | 6.0 | 12.0 | 0.00 | 0.00 | 0.00 | 44 | 1010.9 |
| 20260903111550 | 64 | 360 | 4.0 | 12.0 | 0.00 | 0.00 | 0.00 | 44 | 1010.6 |
| 20260903111028 | 65 | 360 | 2.0 | 12.0 | 0.00 | 0.00 | 0.00 | 43 | 1010.6 |
| 20260903110529 | 65 | 360 | 4.0 | 12.0 | 0.00 | 0.00 | 0.00 | 42 | 1010.6 |
| 20260903110052 | 65 | 360 | 6.0 | 11.0 | 0.00 | 0.00 | 0.00 | 42 | 1010.3 |
| 20260903105526 | 64 | 360 | 2.0 | 10.0 | 0.00 | 0.00 | 0.00 | 43 | 1010.1 |
| 20260903105029 | 64 | 360 | 5.0 | 14.0 | 0.00 | 0.00 | 0.00 | 43 | 1010.3 |
| 20260903104550 | 64 | 360 | 6.0 | 14.0 | 0.00 | 0.00 | 0.00 | 44 | 1010.1 |
| 20260903104025 | 63 | 360 | 5.0 | 13.0 | 0.00 | 0.00 | 0.00 | 44 | 1010.4 |
| 20260903103528 | 62 | 360 | 4.0 | 8.0 | 0.00 | 0.00 | 0.00 | 44 | 1010.2 |
| 20260903103046 | 61 | 0 | 2.0 | 4.0 | 0.00 | 0.00 | 0.00 | 46 | 1010.2 |
| 20260903102528 | 61 | 360 | 0.0 | 3.0 | 0.00 | 0.00 | 0.00 | 47 | 1010.0 |
| 20260903102028 | 62 | 360 | 1.0 | 3.0 | 0.00 | 0.00 | 0.00 | 45 | 1009.6 |
| 20260903101555 | 62 | 360 | 0.0 | 3.0 | 0.00 | 0.00 | 0.00 | 46 | 1009.8 |
| 20260903101026 | 62 | 0 | 0.0 | 4.0 | 0.00 | 0.00 | 0.00 | 44 | 1009.6 |
| 20260903100527 | 61 | 360 | 2.0 | 4.0 | 0.00 | 0.00 | 0.00 | 44 | 1009.4 |
| 20260903100051 | 61 | 360 | 1.0 | 3.0 | 0.00 | 0.00 | 0.00 | 46 | 1009.5 |
| 20260903095528 | 61 | 0 | 0.0 | 4.0 | 0.00 | 0.00 | 0.00 | 47 | 1009.7 |
| 20260903095026 | 61 | 360 | 2.0 | 4.0 | 0.00 | 0.00 | 0.00 | 44 | 1009.5 |
| 20260903094554 | 60 | 360 | 0.0 | 3.0 | 0.00 | 0.00 | 0.00 | 46 | 1009.4 |
| 20260903094026 | 61 | 0 | 0.0 | 0.0 | 0.00 | 0.00 | 0.00 | 45 | 1009.5 |
| 20260903093527 | 61 | 0 | 0.0 | 0.0 | 0.00 | 0.00 | 0.00 | 48 | 1009.5 |
| 20260903093101 | 62 | 0 | 0.0 | 1.0 | 0.00 | 0.00 | 0.00 | 44 | 1009.4 |
| 20260903092528 | 62 | 0 | 0.0 | 3.0 | 0.00 | 0.00 | 0.00 | 45 | 1009.6 |
| 20260903092028 | 63 | 0 | 1.0 | 3.0 | 0.00 | 0.00 | 0.00 | 45 | 1009.5 |
| 20260903091549 | 63 | 360 | 1.0 | 3.0 | 0.00 | 0.00 | 0.00 | 43 | 1009.5 |
| 20260903091028 | 63 | 360 | 0.0 | 3.0 | 0.00 | 0.00 | 0.00 | 45 | 1009.5 |
| 20260903090527 | 63 | 0 | 0.0 | 3.0 | 0.00 | 0.00 | 0.00 | 45 | 1009.6 |
| 20260903090053 | 63 | 360 | 2.0 | 4.0 | 0.00 | 0.00 | 0.00 | 42 | 1009.5 |
| 20260903085528 | 63 | 360 | 1.0 | 4.0 | 0.00 | 0.00 | 0.00 | 45 | 1009.5 |
| 20260903085030 | 62 | 360 | 2.0 | 4.0 | 0.00 | 0.00 | 0.00 | 43 | 1009.4 |
| 20260903084551 | 61 | 0 | 0.0 | 3.0 | 0.00 | 0.00 | 0.00 | 46 | 1009.4 |
| 20260903084026 | 62 | 360 | 1.0 | 3.0 | 0.00 | 0.00 | 0.00 | 47 | 1009.3 |
| 20260903083529 | 62 | 0 | 0.0 | 4.0 | 0.00 | 0.00 | 0.00 | 47 | 1009.2 |
| 20260903083046 | 62 | 0 | 1.0 | 4.0 | 0.00 | 0.00 | 0.00 | 45 | 1009.2 |
| 20260903082525 | 62 | 360 | 0.0 | 3.0 | 0.00 | 0.00 | 0.00 | 47 | 1009.0 |
| 20260903082028 | 62 | 360 | 0.0 | 3.0 | 0.00 | 0.00 | 0.00 | 44 | 1009.0 |
| 20260903081543 | 62 | 0 | 0.0 | 0.0 | 0.00 | 0.00 | 0.00 | 46 | 1009.0 |
| 20260903081025 | 63 | 0 | 0.0 | 0.0 | 0.00 | 0.00 | 0.00 | 43 | 1008.9 |
| 20260903080525 | 63 | 0 | 0.0 | 2.0 | 0.00 | 0.00 | 0.00 | 44 | 1009.0 |
| 20260903080104 | 63 | 0 | 0.0 | 4.0 | 0.00 | 0.00 | 0.00 | 43 | 1008.9 |
| 20260903075528 | 63 | 0 | 0.0 | 6.0 | 0.00 | 0.00 | 0.00 | 44 | 1008.9 |
| 20260903075025 | 63 | 360 | 2.0 | 9.0 | 0.00 | 0.00 | 0.00 | 42 | 1008.7 |
| 20260903074602 | 64 | 360 | 3.0 | 9.0 | 0.00 | 0.00 | 0.00 | 41 | 1008.6 |
| 20260903074025 | 64 | 360 | 2.0 | 8.0 | 0.00 | 0.00 | 0.00 | 42 | 1008.7 |
| 20260903073525 | 64 | 0 | 0.0 | 3.0 | 0.00 | 0.00 | 0.00 | 42 | 1008.4 |
| 20260903073055 | 64 | 0 | 1.0 | 3.0 | 0.00 | 0.00 | 0.00 | 42 | 1008.3 |
| 20260903072525 | 64 | 360 | 1.0 | 5.0 | 0.00 | 0.00 | 0.00 | 42 | 1008.3 |
| 20260903072026 | 64 | 360 | 1.0 | 5.0 | 0.00 | 0.00 | 0.00 | 44 | 1008.2 |
| 20260903071606 | 64 | 360 | 3.0 | 5.0 | 0.00 | 0.00 | 0.00 | 41 | 1008.1 |
| 20260903071027 | 64 | 0 | 0.0 | 6.0 | 0.00 | 0.00 | 0.00 | 43 | 1008.1 |
| 20260903070529 | 64 | 360 | 1.0 | 8.0 | 0.00 | 0.00 | 0.00 | 43 | 1008.1 |
| 20260903070052 | 64 | 360 | 4.0 | 8.0 | 0.00 | 0.00 | 0.00 | 41 | 1007.9 |
| 20260903065529 | 64 | 360 | 3.0 | 5.0 | 0.00 | 0.00 | 0.00 | 43 | 1008.0 |
| 20260903065026 | 65 | 360 | 1.0 | 3.0 | 0.00 | 0.00 | 0.00 | 43 | 1008.0 |
| 20260903064546 | 65 | 360 | 2.0 | 3.0 | 0.00 | 0.00 | 0.00 | 39 | 1007.9 |
| 20260903064025 | 65 | 360 | 0.0 | 3.0 | 0.00 | 0.00 | 0.00 | 40 | 1008.0 |
| 20260903063528 | 66 | 0 | 0.0 | 0.0 | 0.00 | 0.00 | 0.00 | 42 | 1008.0 |
| 20260903063044 | 66 | 0 | 0.0 | 2.0 | 0.00 | 0.00 | 0.00 | 39 | 1008.0 |
| 20260903062525 | 67 | 0 | 0.0 | 4.0 | 0.00 | 0.00 | 0.00 | 38 | 1007.9 |
| 20260903062031 | 68 | 0 | 1.0 | 4.0 | 0.00 | 0.00 | 0.00 | 40 | 1008.0 |
| 20260903061554 | 67 | 360 | 2.0 | 5.0 | 0.00 | 0.00 | 0.00 | 37 | 1007.9 |
| 20260903061029 | 67 | 360 | 1.0 | 5.0 | 0.00 | 0.00 | 0.00 | 39 | 1008.0 |
| 20260903060527 | 66 | 360 | 2.0 | 4.0 | 0.00 | 0.00 | 0.00 | 39 | 1008.0 |
| 20260903060047 | 66 | 360 | 1.0 | 5.0 | 0.00 | 0.00 | 0.00 | 39 | 1008.0 |
| 20260903055527 | 66 | 360 | 2.0 | 5.0 | 0.00 | 0.00 | 0.00 | 39 | 1007.8 |
| 20260903055027 | 65 | 360 | 1.0 | 5.0 | 0.00 | 0.00 | 0.00 | 40 | 1007.7 |
| 20260903054548 | 65 | 360 | 2.0 | 3.0 | 0.00 | 0.00 | 0.00 | 40 | 1007.7 |
| 20260903054030 | 65 | 360 | 1.0 | 4.0 | 0.00 | 0.00 | 0.00 | 43 | 1007.6 |
| 20260903053528 | 64 | 360 | 2.0 | 4.0 | 0.00 | 0.00 | 0.00 | 41 | 1007.6 |
| 20260903053056 | 64 | 360 | 1.0 | 3.0 | 0.00 | 0.00 | 0.00 | 42 | 1007.7 |
| 20260903052527 | 64 | 0 | 0.0 | 0.0 | 0.00 | 0.00 | 0.00 | 43 | 1007.8 |
| 20260903052028 | 65 | 0 | 0.0 | 0.0 | 0.00 | 0.00 | 0.00 | 43 | 1007.8 |
| 20260903051552 | 65 | 0 | 0.0 | 2.0 | 0.00 | 0.00 | 0.00 | 41 | 1007.6 |
| 20260903051028 | 65 | 0 | 0.0 | 3.0 | 0.00 | 0.00 | 0.00 | 42 | 1007.6 |
| 20260903050528 | 66 | 0 | 1.0 | 3.0 | 0.00 | 0.00 | 0.00 | 41 | 1007.7 |
| 20260903050052 | 66 | 360 | 0.0 | 3.0 | 0.00 | 0.00 | 0.00 | 39 | 1007.7 |
| 20260903045526 | 66 | 0 | 0.0 | 0.0 | 0.00 | 0.00 | 0.00 | 40 | 1007.7 |
| 20260903045028 | 66 | 0 | 0.0 | 4.0 | 0.00 | 0.00 | 0.00 | 40 | 1007.8 |
| 20260903044558 | 66 | 0 | 0.0 | 4.0 | 0.00 | 0.00 | 0.00 | 41 | 1007.8 |
| 20260903044025 | 66 | 0 | 2.0 | 4.0 | 0.00 | 0.00 | 0.00 | 41 | 1007.9 |
| 20260903043533 | 64 | 360 | 2.0 | 4.0 | 0.00 | 0.00 | 0.00 | 42 | 1007.9 |
| 20260903043052 | 64 | 360 | 1.0 | 3.0 | 0.00 | 0.00 | 0.00 | 44 | 1008.0 |
| 20260903042528 | 64 | 0 | 1.0 | 5.0 | 0.00 | 0.00 | 0.00 | 44 | 1007.9 |
| 20260903042025 | 63 | 360 | 2.0 | 5.0 | 0.00 | 0.00 | 0.00 | 44 | 1008.1 |
| 20260903041552 | 63 | 360 | 0.0 | 0.0 | 0.00 | 0.00 | 0.00 | 45 | 1008.0 |
| 20260903041028 | 63 | 0 | 0.0 | 1.0 | 0.00 | 0.00 | 0.00 | 47 | 1008.0 |
| 20260903040527 | 63 | 0 | 0.0 | 2.0 | 0.00 | 0.00 | 0.00 | 45 | 1008.1 |
| 20260903040050 | 63 | 360 | 0.0 | 3.0 | 0.00 | 0.00 | 0.00 | 45 | 1008.1 |
| 20260903035528 | 63 | 0 | 1.0 | 3.0 | 0.00 | 0.00 | 0.00 | 45 | 1008.0 |
| 20260903035025 | 63 | 0 | 1.0 | 2.0 | 0.00 | 0.00 | 0.00 | 45 | 1008.1 |
| 20260903034550 | 63 | 0 | 0.0 | 0.0 | 0.00 | 0.00 | 0.00 | 45 | 1008.1 |
| 20260903034026 | 63 | 0 | 0.0 | 2.0 | 0.00 | 0.00 | 0.00 | 45 | 1008.1 |
| 20260903033529 | 63 | 0 | 0.0 | 2.0 | 0.00 | 0.00 | 0.00 | 44 | 1008.0 |
| 20260903033057 | 64 | 360 | 0.0 | 2.0 | 0.00 | 0.00 | 0.00 | 43 | 1008.1 |
| 20260903032529 | 65 | 360 | 0.0 | 4.0 | 0.00 | 0.00 | 0.00 | 42 | 1007.9 |
| 20260903032025 | 66 | 0 | 0.0 | 5.0 | 0.00 | 0.00 | 0.00 | 43 | 1007.9 |
| 20260903031622 | 65 | 360 | 3.0 | 5.0 | 0.00 | 0.00 | 0.00 | 40 | 1007.8 |
| 20260903031027 | 65 | 360 | 1.0 | 5.0 | 0.00 | 0.00 | 0.00 | 41 | 1007.8 |
| 20260903030529 | 65 | 360 | 3.0 | 5.0 | 0.00 | 0.00 | 0.00 | 41 | 1007.8 |
| 20260903030054 | 65 | 360 | 1.0 | 4.0 | 0.00 | 0.00 | 0.00 | 40 | 1007.7 |
| 20260903025525 | 64 | 360 | 2.0 | 4.0 | 0.00 | 0.00 | 0.00 | 41 | 1007.8 |
| 20260903025026 | 65 | 360 | 1.0 | 4.0 | 0.00 | 0.00 | 0.00 | 42 | 1007.7 |
| 20260903024556 | 65 | 360 | 0.0 | 2.0 | 0.00 | 0.00 | 0.00 | 41 | 1007.7 |
| 20260903024025 | 66 | 360 | 0.0 | 2.0 | 0.00 | 0.00 | 0.00 | 40 | 1007.6 |
| 20260903023532 | 67 | 0 | 0.0 | 3.0 | 0.00 | 0.00 | 0.00 | 39 | 1007.6 |
| 20260903023051 | 67 | 0 | 1.0 | 3.0 | 0.00 | 0.00 | 0.00 | 39 | 1007.5 |
| 20260903022529 | 67 | 0 | 0.0 | 5.0 | 0.00 | 0.00 | 0.00 | 38 | 1007.5 |
| 20260903022029 | 68 | 0 | 1.0 | 5.0 | 0.00 | 0.00 | 0.00 | 37 | 1007.3 |
| 20260903021549 | 69 | 360 | 2.0 | 4.0 | 0.00 | 0.00 | 0.00 | 35 | 1007.2 |
| 20260903021026 | 69 | 360 | 2.0 | 4.0 | 0.00 | 0.00 | 0.00 | 35 | 1007.3 |
| 20260903020525 | 71 | 360 | 1.0 | 4.0 | 0.00 | 0.00 | 0.00 | 35 | 1007.1 |
| 20260903020052 | 71 | 360 | 2.0 | 4.0 | 0.00 | 0.00 | 0.00 | 33 | 1006.8 |
| 20260903015526 | 72 | 360 | 2.0 | 4.0 | 0.00 | 0.00 | 0.00 | 33 | 1006.7 |
| 20260903015028 | 74 | 0 | 0.0 | 3.0 | 0.00 | 0.00 | 0.00 | 31 | 1006.6 |
| 20260903014558 | 75 | 0 | 1.0 | 4.0 | 0.00 | 0.00 | 0.00 | 30 | 1006.6 |
| 20260903014028 | 77 | 232 | 2.0 | 4.0 | 0.00 | 0.00 | 0.00 | 27 | 1006.7 |
| 20260903013528 | 78 | 0 | 0.0 | 4.0 | 0.00 | 0.00 | 0.00 | 27 | 1006.8 |
| 20260903013048 | 80 | 0 | 1.0 | 4.0 | 0.00 | 0.00 | 0.00 | 25 | 1006.7 |
| 20260903012530 | 81 | 0 | 0.0 | 2.0 | 0.00 | 0.00 | 0.00 | 24 | 1006.7 |
| 20260903012027 | 82 | 0 | 0.0 | 5.0 | 0.00 | 0.00 | 0.00 | 23 | 1006.7 |
| 20260903011548 | 83 | 0 | 0.0 | 6.0 | 0.00 | 0.00 | 0.00 | 25 | 1006.7 |
| 20260903011028 | 83 | 360 | 3.0 | 6.0 | 0.00 | 0.00 | 0.00 | 22 | 1006.6 |
| 20260903010526 | 83 | 116 | 2.0 | 5.0 | 0.00 | 0.00 | 0.00 | 22 | 1006.6 |
| 20260903010049 | 84 | 74 | 2.0 | 5.0 | 0.00 | 0.00 | 0.00 | 22 | 1006.7 |
| 20260903005526 | 84 | 101 | 1.0 | 7.0 | 0.00 | 0.00 | 0.00 | 22 | 1006.6 |
| 20260903005027 | 84 | 74 | 3.0 | 7.0 | 0.00 | 0.00 | 0.00 | 21 | 1006.6 |
| 20260903004553 | 85 | 43 | 2.0 | 4.0 | 0.00 | 0.00 | 0.00 | 23 | 1006.5 |
| 20260903004028 | 86 | 319 | 1.0 | 4.0 | 0.00 | 0.00 | 0.00 | 21 | 1006.5 |
| 20260903003526 | 86 | 292 | 2.0 | 4.0 | 0.00 | 0.00 | 0.00 | 23 | 1006.4 |
| 20260903003100 | 87 | 0 | 1.0 | 4.0 | 0.00 | 0.00 | 0.00 | 23 | 1006.4 |
| 20260903002525 | 87 | 276 | 1.0 | 7.0 | 0.00 | 0.00 | 0.00 | 23 | 1006.4 |
| 20260903002027 | 87 | 265 | 1.0 | 7.0 | 0.00 | 0.00 | 0.00 | 23 | 1006.3 |
| 20260903001549 | 87 | 249 | 2.0 | 6.0 | 0.00 | 0.00 | 0.00 | 23 | 1006.4 |
| 20260903001026 | 86 | 258 | 1.0 | 7.0 | 0.00 | 0.00 | 0.00 | 22 | 1006.4 |
| 20260903000526 | 86 | 250 | 2.0 | 7.0 | 0.00 | 0.00 | 0.00 | 22 | 1006.4 |
| 20260903000049 | 86 | 264 | 3.0 | 7.0 | 0.00 | 0.00 | 0.00 | 22 | 1006.4 |
| 20260902235526 | 87 | 263 | 1.0 | 4.0 | 0.00 | 0.00 | 0.00 | 20 | 1006.5 |
| 20260902235029 | 87 | 258 | 0.0 | 4.0 | 0.00 | 0.00 | 0.00 | 19 | 1006.5 |
| 20260902234559 | 88 | 0 | 0.0 | 4.0 | 0.00 | 0.00 | 0.00 | 19 | 1006.5 |
| 20260902234028 | 88 | 286 | 1.0 | 3.0 | 0.00 | 0.00 | 0.00 | 20 | 1006.6 |
| 20260902233528 | 88 | 291 | 1.0 | 6.0 | 0.00 | 0.00 | 0.00 | 19 | 1006.6 |
| 20260902233051 | 89 | 292 | 2.0 | 9.0 | 0.00 | 0.00 | 0.00 | 18 | 1006.4 |
| 20260902232529 | 89 | 342 | 1.0 | 10.0 | 0.00 | 0.00 | 0.00 | 18 | 1006.6 |
| 20260902232025 | 89 | 325 | 3.0 | 10.0 | 0.00 | 0.00 | 0.00 | 17 | 1006.6 |
| 20260902231552 | 89 | 300 | 2.0 | 9.0 | 0.00 | 0.00 | 0.00 | 19 | 1006.6 |
| 20260902231025 | 89 | 297 | 2.0 | 9.0 | 0.00 | 0.00 | 0.00 | 18 | 1006.5 |
| 20260902230535 | 89 | 360 | 3.0 | 9.0 | 0.00 | 0.00 | 0.00 | 18 | 1006.5 |
| 20260902230051 | 89 | 282 | 4.0 | 9.0 | 0.00 | 0.00 | 0.00 | 18 | 1006.6 |
| 20260902225526 | 90 | 309 | 3.0 | 8.0 | 0.00 | 0.00 | 0.00 | 17 | 1006.6 |
| 20260902225026 | 89 | 271 | 3.0 | 9.0 | 0.00 | 0.00 | 0.00 | 19 | 1006.6 |
| 20260902224549 | 89 | 23 | 2.0 | 9.0 | 0.00 | 0.00 | 0.00 | 20 | 1006.7 |
| 20260902224027 | 89 | 55 | 4.0 | 7.0 | 0.00 | 0.00 | 0.00 | 19 | 1006.7 |
| 20260902223531 | 89 | 64 | 1.0 | 11.0 | 0.00 | 0.00 | 0.00 | 19 | 1006.6 |
| 20260902223047 | 88 | 223 | 2.0 | 11.0 | 0.00 | 0.00 | 0.00 | 21 | 1006.7 |
| 20260902222527 | 88 | 236 | 2.0 | 5.0 | 0.00 | 0.00 | 0.00 | 19 | 1006.7 |
| 20260902222029 | 88 | 0 | 1.0 | 6.0 | 0.00 | 0.00 | 0.00 | 20 | 1006.7 |
| 20260902221554 | 88 | 46 | 1.0 | 6.0 | 0.00 | 0.00 | 0.00 | 21 | 1006.9 |
| 20260902221028 | 88 | 107 | 1.0 | 7.0 | 0.00 | 0.00 | 0.00 | 20 | 1006.8 |
| 20260902220526 | 87 | 49 | 4.0 | 7.0 | 0.00 | 0.00 | 0.00 | 20 | 1006.9 |
| 20260902220056 | 86 | 49 | 0.0 | 3.0 | 0.00 | 0.00 | 0.00 | 21 | 1007.0 |
| 20260902215529 | 86 | 49 | 1.0 | 6.0 | 0.00 | 0.00 | 0.00 | 20 | 1007.1 |
| 20260902215025 | 86 | 49 | 1.0 | 10.0 | 0.00 | 0.00 | 0.00 | 19 | 1007.1 |
| 20260902214551 | 86 | 65 | 4.0 | 12.0 | 0.00 | 0.00 | 0.00 | 19 | 1007.1 |
| 20260902214026 | 87 | 53 | 6.0 | 12.0 | 0.00 | 0.00 | 0.00 | 20 | 1007.1 |
| 20260902213528 | 87 | 37 | 3.0 | 11.0 | 0.00 | 0.00 | 0.00 | 20 | 1007.0 |
| 20260902213103 | 87 | 44 | 3.0 | 7.0 | 0.00 | 0.00 | 0.00 | 20 | 1007.1 |
| 20260902212528 | 87 | 61 | 1.0 | 5.0 | 0.00 | 0.00 | 0.00 | 19 | 1007.2 |
| 20260902212027 | 88 | 0 | 1.0 | 7.0 | 0.00 | 0.00 | 0.00 | 19 | 1007.1 |
| 20260902211551 | 88 | 279 | 3.0 | 7.0 | 0.00 | 0.00 | 0.00 | 19 | 1007.2 |
| 20260902211027 | 87 | 267 | 1.0 | 8.0 | 0.00 | 0.00 | 0.00 | 21 | 1007.2 |
| 20260902210527 | 87 | 302 | 3.0 | 8.0 | 0.00 | 0.00 | 0.00 | 21 | 1007.3 |
| 20260902210050 | 87 | 290 | 3.0 | 7.0 | 0.00 | 0.00 | 0.00 | 20 | 1007.3 |
| 20260902205529 | 88 | 274 | 1.0 | 4.0 | 0.00 | 0.00 | 0.00 | 21 | 1007.3 |
| 20260902205025 | 89 | 288 | 1.0 | 5.0 | 0.00 | 0.00 | 0.00 | 19 | 1007.4 |
| 20260902204548 | 89 | 281 | 1.0 | 7.0 | 0.00 | 0.00 | 0.00 | 18 | 1007.4 |
| 20260902204025 | 90 | 290 | 3.0 | 7.0 | 0.00 | 0.00 | 0.00 | 18 | 1007.5 |
| 20260902203529 | 89 | 276 | 2.0 | 7.0 | 0.00 | 0.00 | 0.00 | 19 | 1007.4 |
| 20260902203058 | 89 | 333 | 1.0 | 7.0 | 0.00 | 0.00 | 0.00 | 18 | 1007.5 |
| 20260902202528 | 90 | 263 | 2.0 | 9.0 | 0.00 | 0.00 | 0.00 | 16 | 1007.5 |
| 20260902202025 | 90 | 285 | 1.0 | 12.0 | 0.00 | 0.00 | 0.00 | 17 | 1007.6 |
| 20260902201554 | 89 | 337 | 3.0 | 12.0 | 0.00 | 0.00 | 0.00 | 18 | 1007.5 |
| 20260902201027 | 89 | 49 | 4.0 | 10.0 | 0.00 | 0.00 | 0.00 | 19 | 1007.7 |
| 20260902200526 | 89 | 80 | 4.0 | 10.0 | 0.00 | 0.00 | 0.00 | 17 | 1007.7 |
| 20260902200055 | 88 | 50 | 3.0 | 9.0 | 0.00 | 0.00 | 0.00 | 18 | 1007.7 |
| 20260902195528 | 88 | 50 | 3.0 | 11.0 | 0.00 | 0.00 | 0.00 | 19 | 1007.8 |
| 20260902195029 | 89 | 65 | 3.0 | 11.0 | 0.00 | 0.00 | 0.00 | 18 | 1007.9 |
| 20260902194545 | 89 | 350 | 4.0 | 11.0 | 0.00 | 0.00 | 0.00 | 18 | 1007.9 |
| 20260902194029 | 89 | 309 | 4.0 | 9.0 | 0.00 | 0.00 | 0.00 | 18 | 1008.0 |
| 20260902193528 | 89 | 311 | 3.0 | 9.0 | 0.00 | 0.00 | 0.00 | 17 | 1008.2 |
| 20260902193057 | 89 | 302 | 3.0 | 9.0 | 0.00 | 0.00 | 0.00 | 17 | 1008.1 |
| 20260902192524 | 89 | 217 | 3.0 | 9.0 | 0.00 | 0.00 | 0.00 | 19 | 1008.2 |
| 20260902192028 | 89 | 213 | 3.0 | 9.0 | 0.00 | 0.00 | 0.00 | 18 | 1008.2 |
| 20260902191554 | 89 | 300 | 2.0 | 8.0 | 0.00 | 0.00 | 0.00 | 19 | 1008.3 |
| 20260902191029 | 89 | 294 | 2.0 | 11.0 | 0.00 | 0.00 | 0.00 | 19 | 1008.3 |
| 20260902190525 | 89 | 236 | 6.0 | 12.0 | 0.00 | 0.00 | 0.00 | 18 | 1008.4 |
| 20260902190049 | 89 | 293 | 5.0 | 12.0 | 0.00 | 0.00 | 0.00 | 19 | 1008.5 |
| 20260902185526 | 89 | 298 | 4.0 | 15.0 | 0.00 | 0.00 | 0.00 | 18 | 1008.5 |
| 20260902185026 | 89 | 284 | 3.0 | 15.0 | 0.00 | 0.00 | 0.00 | 19 | 1008.6 |
| 20260902184551 | 88 | 295 | 4.0 | 15.0 | 0.00 | 0.00 | 0.00 | 18 | 1008.7 |
| 20260902184028 | 88 | 300 | 1.0 | 12.0 | 0.00 | 0.00 | 0.00 | 18 | 1008.7 |
| 20260902183527 | 87 | 351 | 5.0 | 12.0 | 0.00 | 0.00 | 0.00 | 19 | 1008.8 |
| 20260902183045 | 86 | 342 | 2.0 | 9.0 | 0.00 | 0.00 | 0.00 | 20 | 1009.0 |
| 20260902182529 | 86 | 81 | 3.0 | 15.0 | 0.00 | 0.00 | 0.00 | 20 | 1009.1 |
| 20260902182029 | 85 | 220 | 2.0 | 15.0 | 0.00 | 0.00 | 0.00 | 22 | 1009.3 |
| 20260902181553 | 85 | 336 | 3.0 | 15.0 | 0.00 | 0.00 | 0.00 | 22 | 1009.1 |
| 20260902181026 | 85 | 49 | 3.0 | 8.0 | 0.00 | 0.00 | 0.00 | 21 | 1009.2 |
| 20260902180527 | 85 | 40 | 2.0 | 10.0 | 0.00 | 0.00 | 0.00 | 22 | 1009.4 |
| 20260902180052 | 85 | 292 | 2.0 | 10.0 | 0.00 | 0.00 | 0.00 | 22 | 1009.6 |
| 20260902175526 | 86 | 338 | 4.0 | 16.0 | 0.00 | 0.00 | 0.00 | 21 | 1009.6 |
| 20260902175026 | 85 | 44 | 2.0 | 16.0 | 0.00 | 0.00 | 0.00 | 22 | 1009.9 |
| 20260902174545 | 85 | 47 | 4.0 | 14.0 | 0.00 | 0.00 | 0.00 | 23 | 1009.8 |
| 20260902174025 | 84 | 111 | 2.0 | 6.0 | 0.00 | 0.00 | 0.00 | 24 | 1010.0 |
| 20260902173531 | 85 | 324 | 2.0 | 7.0 | 0.00 | 0.00 | 0.00 | 25 | 1010.0 |
| 20260902173053 | 85 | 305 | 2.0 | 11.0 | 0.00 | 0.00 | 0.00 | 25 | 1010.0 |
| 20260902172527 | 84 | 32 | 4.0 | 11.0 | 0.00 | 0.00 | 0.00 | 24 | 1010.1 |
| 20260902172027 | 83 | 74 | 2.0 | 12.0 | 0.00 | 0.00 | 0.00 | 25 | 1010.1 |
| 20260902171601 | 84 | 52 | 3.0 | 12.0 | 0.00 | 0.00 | 0.00 | 23 | 1010.1 |
| 20260902171025 | 85 | 34 | 3.0 | 16.0 | 0.00 | 0.00 | 0.00 | 23 | 1010.0 |
| 20260902170528 | 85 | 289 | 4.0 | 16.0 | 0.00 | 0.00 | 0.00 | 23 | 1010.1 |
| 20260902170053 | 84 | 330 | 6.0 | 13.0 | 0.00 | 0.00 | 0.00 | 24 | 1010.1 |
| 20260902165527 | 84 | 72 | 6.0 | 12.0 | 0.00 | 0.00 | 0.00 | 25 | 1009.9 |
| 20260902165025 | 86 | 65 | 3.0 | 12.0 | 0.00 | 0.00 | 0.00 | 25 | 1009.7 |
| 20260902164553 | 85 | 238 | 5.0 | 12.0 | 0.00 | 0.00 | 0.00 | 25 | 1009.9 |
| 20260902164027 | 84 | 210 | 5.0 | 12.0 | 0.00 | 0.00 | 0.00 | 27 | 1009.9 |
| 20260902163526 | 84 | 221 | 6.0 | 12.0 | 0.00 | 0.00 | 0.00 | 29 | 1009.9 |
| 20260902163101 | 84 | 237 | 5.0 | 11.0 | 0.00 | 0.00 | 0.00 | 30 | 1010.1 |
| 20260902162526 | 83 | 218 | 5.0 | 9.0 | 0.00 | 0.00 | 0.00 | 31 | 1010.0 |
| 20260902162030 | 82 | 248 | 3.0 | 10.0 | 0.00 | 0.00 | 0.00 | 31 | 1010.1 |
| 20260902161544 | 82 | 263 | 4.0 | 10.0 | 0.00 | 0.00 | 0.00 | 33 | 1010.2 |
| 20260902161030 | 82 | 228 | 4.0 | 13.0 | 0.00 | 0.00 | 0.00 | 31 | 1010.1 |
| 20260902160529 | 82 | 227 | 7.0 | 13.0 | 0.00 | 0.00 | 0.00 | 31 | 1010.1 |
| 20260902160055 | 82 | 240 | 5.0 | 11.0 | 0.00 | 0.00 | 0.00 | 32 | 1010.2 |
| 20260902155528 | 82 | 243 | 3.0 | 11.0 | 0.00 | 0.00 | 0.00 | 31 | 1010.2 |
| 20260902155032 | 82 | 190 | 4.0 | 9.0 | 0.00 | 0.00 | 0.00 | 30 | 1010.3 |
| 20260902154549 | 82 | 251 | 4.0 | 9.0 | 0.00 | 0.00 | 0.00 | 31 | 1010.3 |
| 20260902154027 | 81 | 235 | 1.0 | 9.0 | 0.00 | 0.00 | 0.00 | 32 | 1010.4 |
| 20260902153526 | 81 | 222 | 2.0 | 9.0 | 0.00 | 0.00 | 0.00 | 33 | 1010.4 |
| 20260902153048 | 81 | 286 | 2.0 | 10.0 | 0.00 | 0.00 | 0.00 | 35 | 1010.4 |
| 20260902152525 | 80 | 275 | 3.0 | 10.0 | 0.00 | 0.00 | 0.00 | 36 | 1010.5 |
| 20260902152029 | 80 | 273 | 1.0 | 8.0 | 0.00 | 0.00 | 0.00 | 36 | 1010.4 |
| 20260902151551 | 79 | 248 | 2.0 | 8.0 | 0.00 | 0.00 | 0.00 | 35 | 1010.6 |
| 20260902151027 | 78 | 209 | 4.0 | 9.0 | 0.00 | 0.00 | 0.00 | 36 | 1010.4 |
| 20260902150526 | 78 | 252 | 4.0 | 9.0 | 0.00 | 0.00 | 0.00 | 36 | 1010.6 |
| 20260902150052 | 77 | 286 | 2.0 | 6.0 | 0.00 | 0.00 | 0.00 | 39 | 1010.7 |
| 20260902145529 | 76 | 360 | 2.0 | 5.0 | 0.00 | 0.00 | 0.00 | 40 | 1010.9 |
| 20260902145028 | 75 | 360 | 1.0 | 5.0 | 0.00 | 0.00 | 0.00 | 41 | 1010.8 |
| 20260902144549 | 75 | 0 | 2.0 | 5.0 | 0.00 | 0.00 | 0.00 | 41 | 1010.9 |
| 20260902144027 | 74 | 360 | 2.0 | 5.0 | 0.00 | 0.00 | 0.00 | 44 | 1010.9 |
| 20260902143527 | 72 | 360 | 1.0 | 3.0 | 0.00 | 0.00 | 0.00 | 46 | 1010.9 |
| 20260902143049 | 72 | 0 | 1.0 | 4.0 | 0.00 | 0.00 | 0.00 | 47 | 1011.0 |
| 20260902142527 | 71 | 360 | 1.0 | 4.0 | 0.00 | 0.00 | 0.00 | 49 | 1011.0 |
| 20260902142028 | 69 | 0 | 0.0 | 4.0 | 0.00 | 0.00 | 0.00 | 50 | 1011.1 |
| 20260902141542 | 68 | 0 | 0.0 | 4.0 | 0.00 | 0.00 | 0.00 | 54 | 1011.2 |
| 20260902141026 | 67 | 0 | 0.0 | 4.0 | 0.00 | 0.00 | 0.00 | 56 | 1011.1 |
| 20260902140526 | 66 | 360 | 2.0 | 4.0 | 0.00 | 0.00 | 0.00 | 53 | 1011.2 |
| 20260902140052 | 65 | 360 | 0.0 | 2.0 | 0.00 | 0.00 | 0.00 | 56 | 1011.4 |
| 20260902135527 | 63 | 0 | 0.0 | 3.0 | 0.00 | 0.00 | 0.00 | 59 | 1011.4 |
| 20260902135027 | 62 | 0 | 0.0 | 6.0 | 0.00 | 0.00 | 0.00 | 60 | 1011.3 |
| 20260902134554 | 61 | 360 | 2.0 | 6.0 | 0.00 | 0.00 | 0.00 | 61 | 1011.4 |
| 20260902134029 | 60 | 360 | 2.0 | 8.0 | 0.00 | 0.00 | 0.00 | 63 | 1011.4 |